Weather History for Aberdeen, SD

Change the Weather History Date:

Monday, December 10, 2012

  Actual Average Record
Temperature  
Mean Temperature -2 °F 17 °F  
Max Temperature 12 °F 27 °F 58 °F (1979)
Min Temperature -17 °F 7 °F -29 °F (1972)
Degree Days  
Heating Degree Days 67 48  
Month to date heating degree days 388 462  
Since 1 July heating degree days 2283 2425  
Cooling Degree Days 0 0  
Month to date cooling degree days 0 0  
Year to date cooling degree days 764 525  
Moisture  
Dew Point -4 °F    
Average Humidity 81    
Maximum Humidity 91    
Minimum Humidity 70    
Precipitation  
Precipitation 0.01 in 0.02 in 0.50 in (1893)
Month to date precipitation 0.62 0.18  
Year to date precipitation 14.51 21.38  
Snow  
Snow 0.20 in - - ()
Month to date snowfall 10.8  
Since 1 July snowfall 11.4  
Snow Depth 8.00 in    
Sea Level Pressure  
Sea Level Pressure 29.93 in    
Wind  
Wind Speed 8 mph (South)    
Max Wind Speed 18 mph    
Max Gust Speed 22 mph    
Visibility 8 miles    
Events Snow    
T = Trace of Precipitation, MM = Missing Value Source: NWS Daily Summary

Daily Weather History Graph

Daily Weather History Graph

Search for Another Location

Airport:

Trip Planner

Search our weather history database for the weather conditions in past years. The results will help you decide how hot, cold, wet, or windy it might be!

Date:

Astronomy

Dec. 10, 2012 Rise Set
Actual Time 8:03 AM CST 4:50 PM CST
Civil Twilight 7:29 AM CST 5:24 PM CST
Nautical Twilight 6:51 AM CST 6:01 PM CST
Astronomical Twilight 6:15 AM CST 6:37 PM CST
Moon 4:42 AM CST (12/10) 2:45 PM CST (12/10)
Length of Visible Light 9h 55m
Length of Day
8h 47m
Waning Crescent, 10% of the Moon is Illuminated
Dec 10
Waning Crescent
Dec 13
New
Dec 19
First Quarter
Dec 28
Full
Jan 4
Last Quarter

Hourly Weather History & Observations

Time (CST) Temp. Windchill Dew Point Humidity Pressure Visibility Wind Dir Wind Speed Gust Speed Precip Events Conditions
12:53 AM -5.1 °F - -9.0 °F 83% 30.25 in 10.0 mi Calm Calm - N/A   Clear
1:53 AM -9.9 °F -21.5 °F -14.1 °F 82% 30.22 in 10.0 mi WSW 4.6 mph - N/A   Clear
2:53 AM -11.0 °F -20.4 °F -16.1 °F 78% 30.21 in 10.0 mi WSW 3.5 mph - N/A   Clear
3:53 AM -11.0 °F - -17.0 °F 75% 30.17 in 10.0 mi Calm Calm - N/A   Clear
4:53 AM -15.0 °F -29.3 °F -18.9 °F 82% 30.14 in 10.0 mi SSE 5.8 mph - N/A   Clear
5:05 AM -16.6 °F -31.3 °F -20.2 °F 84% 30.02 in 10.0 mi SSE 5.8 mph - N/A   Scattered Clouds
5:18 AM -13.0 °F -25.1 °F -16.6 °F 84% 30.02 in 10.0 mi South 4.6 mph - N/A   Mostly Cloudy
5:37 AM -14.8 °F -29.1 °F -20.2 °F 77% 30.01 in 10.0 mi South 5.8 mph - N/A   Scattered Clouds
5:53 AM -14.1 °F -28.3 °F -18.9 °F 79% 30.12 in 10.0 mi SSW 5.8 mph - N/A   Mostly Cloudy
6:24 AM -14.8 °F -29.1 °F -20.2 °F 77% 29.99 in 10.0 mi SSE 5.8 mph - N/A   Scattered Clouds
6:53 AM -11.9 °F -27.3 °F -18.0 °F 74% 30.10 in 10.0 mi South 6.9 mph - N/A   Clear
7:53 AM -11.9 °F -27.3 °F -17.0 °F 78% 30.08 in 8.0 mi South 6.9 mph - N/A   Partly Cloudy
8:22 AM -11.2 °F -26.4 °F -16.6 °F 77% 29.95 in 10.0 mi SSE 6.9 mph - N/A   Mostly Cloudy
8:38 AM -9.4 °F -22.7 °F -14.8 °F 77% 29.95 in 10.0 mi South 5.8 mph - N/A   Scattered Clouds
8:53 AM -9.9 °F -24.9 °F -15.0 °F 78% 30.06 in 10.0 mi SSE 6.9 mph - N/A   Partly Cloudy
9:53 AM -7.1 °F -25.0 °F -11.0 °F 83% 30.03 in 10.0 mi South 10.4 mph - N/A   Clear
10:24 AM -4.0 °F -20.2 °F -9.4 °F 78% 29.91 in 10.0 mi SSE 9.2 mph - N/A   Scattered Clouds
10:35 AM -2.2 °F -19.9 °F -7.6 °F 78% 29.91 in 8.0 mi South 11.5 mph - N/A   Mostly Cloudy
10:53 AM -2.0 °F -17.7 °F -6.0 °F 83% 30.01 in 1.8 mi South 9.2 mph - N/A   Mostly Cloudy
10:57 AM -2.2 °F -19.9 °F -5.8 °F 85% 29.89 in 3.0 mi South 11.5 mph - N/A   Mostly Cloudy
11:09 AM -0.4 °F -15.7 °F -5.8 °F 78% 29.89 in 6.0 mi South 9.2 mph - N/A   Scattered Clouds
11:53 AM 1.9 °F -14.7 °F -2.9 °F 80% 29.97 in 9.0 mi South 11.5 mph - N/A   Scattered Clouds
12:24 PM 3.2 °F -16.5 °F -2.2 °F 78% 29.85 in 6.0 mi South 17.3 mph - N/A   Haze
12:51 PM 5.0 °F -12.3 °F -0.4 °F 78% 29.84 in 5.0 mi South 13.8 mph - N/A   Haze
12:53 PM 5.0 °F -13.0 °F -0.0 °F 80% 29.94 in 5.0 mi South 15.0 mph - N/A   Haze
1:15 PM 6.8 °F -10.7 °F -0.4 °F 72% 29.82 in 10.0 mi South 15.0 mph - N/A   Overcast
1:53 PM 8.1 °F -9.0 °F 1.9 °F 76% 29.89 in 10.0 mi South 15.0 mph - N/A   Overcast
2:53 PM 9.0 °F -7.9 °F 3.0 °F 77% 29.87 in 9.0 mi South 15.0 mph - 0.00 in Snow Light Snow
3:07 PM 8.6 °F -7.7 °F 3.2 °F 79% 29.76 in 3.0 mi South 13.8 mph - 0.00 in Snow Light Snow
3:21 PM 10.4 °F -6.0 °F 3.2 °F 73% 29.77 in 5.0 mi South 15.0 mph - 0.00 in Snow Light Snow
3:37 PM 10.4 °F -7.2 °F 3.2 °F 73% 29.76 in 1.8 mi SSW 17.3 mph - 0.00 in Snow Light Snow
3:53 PM 10.0 °F -5.2 °F 5.0 °F 80% 29.87 in 1.8 mi South 12.7 mph - 0.00 in Snow Light Snow
4:07 PM 10.4 °F -4.1 °F 5.0 °F 79% 29.77 in 2.5 mi SSW 11.5 mph - 0.00 in Snow Light Snow
4:28 PM 10.4 °F -4.8 °F 6.8 °F 85% 29.77 in 1.5 mi South 12.7 mph - 0.01 in Snow Light Snow
4:42 PM 10.4 °F -4.1 °F 6.8 °F 85% 29.77 in 2.5 mi SSW 11.5 mph - 0.01 in Snow Light Snow
4:51 PM 10.4 °F -4.1 °F 6.8 °F 85% 29.76 in 4.0 mi SSW 11.5 mph - 0.01 in Snow Light Snow
4:53 PM 10.9 °F -3.4 °F 6.1 °F 81% 29.87 in 4.0 mi SSW 11.5 mph - 0.01 in Snow Light Snow
5:37 PM 12.2 °F -0.2 °F 8.6 °F 85% 29.77 in 2.5 mi South 9.2 mph - 0.00 in Snow Light Snow
5:46 PM 12.2 °F 0.7 °F 6.8 °F 79% 29.76 in 6.0 mi South 8.1 mph - 0.00 in Snow Light Snow
5:53 PM 12.0 °F -0.4 °F 7.0 °F 80% 29.87 in 9.0 mi South 9.2 mph - 0.00 in   Overcast
6:53 PM 9.0 °F 0.6 °F 6.1 °F 88% 29.88 in 10.0 mi South 4.6 mph - N/A   Partly Cloudy
7:53 PM 5.0 °F -5.6 °F 1.9 °F 87% 29.88 in 10.0 mi SSW 5.8 mph - N/A   Clear
8:53 PM 8.1 °F -2.0 °F 3.9 °F 83% 29.88 in 10.0 mi South 5.8 mph - N/A   Overcast
9:53 PM 8.1 °F -2.0 °F 3.9 °F 83% 29.88 in 10.0 mi SSW 5.8 mph - N/A   Overcast
10:53 PM 7.0 °F -5.7 °F 3.0 °F 84% 29.88 in 10.0 mi West 8.1 mph - N/A   Mostly Cloudy
11:53 PM 10.9 °F -0.8 °F 7.0 °F 84% 29.88 in 10.0 mi West 8.1 mph - N/A   Clear